| time (UTC) | temp C | wind direction | speed KPH | gust KPH | rain 1hr cm | rain 24hr cm | rain mn cm | humidity % | barometer mb |
| 20260508071431 | 5 | 8 | 3.2 | 3.2 | 0.00 | 0.00 | 0.00 | 66 | 1005.8 |
| 20260508070929 | 6 | 8 | 3.2 | 3.2 | 0.00 | 0.00 | 0.00 | 65 | 1006.0 |
| 20260508070426 | 6 | 1 | 3.2 | 3.2 | 0.00 | 0.00 | 0.00 | 65 | 1005.9 |
| 20260508065924 | 6 | 347 | 1.6 | 3.2 | 0.00 | 0.00 | 0.00 | 64 | 1006.1 |
| 20260508065422 | 6 | 296 | 4.8 | 8.0 | 0.00 | 0.00 | 0.00 | 63 | 1006.1 |
| 20260508064920 | 6 | 273 | 6.4 | 8.0 | 0.00 | 0.00 | 0.00 | 63 | 1006.1 |
| 20260508064417 | 6 | 303 | 4.8 | 4.8 | 0.00 | 0.00 | 0.00 | 63 | 1006.0 |
| 20260508063915 | 6 | 289 | 4.8 | 4.8 | 0.00 | 0.00 | 0.00 | 63 | 1006.2 |
| 20260508063412 | 6 | 337 | 4.8 | 8.0 | 0.00 | 0.00 | 0.00 | 62 | 1006.4 |
| 20260508062909 | 6 | 349 | 3.2 | 3.2 | 0.00 | 0.00 | 0.00 | 62 | 1006.3 |
| 20260508062407 | 6 | 8 | 1.6 | 1.6 | 0.00 | 0.00 | 0.00 | 63 | 1006.3 |
| 20260508061904 | 6 | 34 | 3.2 | 3.2 | 0.00 | 0.00 | 0.00 | 62 | 1006.2 |
| 20260508061401 | 6 | 337 | 4.8 | 8.0 | 0.00 | 0.00 | 0.00 | 62 | 1006.3 |
| 20260508060857 | 6 | 303 | 12.9 | 14.5 | 0.00 | 0.00 | 0.00 | 61 | 1006.1 |
| 20260508060355 | 6 | 348 | 6.4 | 9.7 | 0.00 | 0.00 | 0.00 | 62 | 1006.2 |
| 20260508055850 | 6 | 313 | 4.8 | 4.8 | 0.00 | 0.00 | 0.00 | 62 | 1006.6 |
| 20260508055348 | 6 | 349 | 4.8 | 4.8 | 0.00 | 0.00 | 0.00 | 62 | 1006.4 |
| 20260508054844 | 6 | 9 | 1.6 | 1.6 | 0.00 | 0.00 | 0.00 | 62 | 1006.4 |
| 20260508054341 | 6 | 317 | 4.8 | 4.8 | 0.00 | 0.00 | 0.00 | 62 | 1006.5 |
| 20260508053838 | 6 | 349 | 3.2 | 3.2 | 0.00 | 0.00 | 0.00 | 62 | 1006.4 |
| 20260508053336 | 6 | 299 | 3.2 | 4.8 | 0.00 | 0.00 | 0.00 | 61 | 1006.7 |
| 20260508052833 | 6 | 332 | 3.2 | 3.2 | 0.00 | 0.00 | 0.00 | 62 | 1006.5 |
| 20260508052330 | 6 | 281 | 4.8 | 8.0 | 0.00 | 0.00 | 0.00 | 61 | 1006.7 |
| 20260508051826 | 6 | 15 | 1.6 | 3.2 | 0.00 | 0.00 | 0.00 | 62 | 1006.8 |
| 20260508051322 | 6 | 307 | 0.0 | 1.6 | 0.00 | 0.00 | 0.00 | 62 | 1006.7 |
| 20260508050818 | 6 | 345 | 1.6 | 1.6 | 0.00 | 0.00 | 0.00 | 63 | 1006.5 |
| 20260508050316 | 6 | 273 | 6.4 | 8.0 | 0.00 | 0.00 | 0.00 | 62 | 1006.5 |
| 20260508045811 | 6 | 70 | 3.2 | 3.2 | 0.00 | 0.00 | 0.00 | 62 | 1006.4 |
| 20260508045309 | 6 | 281 | 8.0 | 9.7 | 0.00 | 0.00 | 0.00 | 62 | 1006.7 |
| 20260508044807 | 6 | 311 | 3.2 | 3.2 | 0.00 | 0.00 | 0.00 | 63 | 1006.6 |
| 20260508044303 | 6 | 280 | 3.2 | 3.2 | 0.00 | 0.00 | 0.00 | 62 | 1006.5 |
| 20260508043759 | 6 | 330 | 3.2 | 3.2 | 0.00 | 0.00 | 0.00 | 61 | 1006.8 |
| 20260508043256 | 6 | 331 | 4.8 | 4.8 | 0.00 | 0.00 | 0.00 | 61 | 1006.8 |
| 20260508042753 | 6 | 9 | 3.2 | 3.2 | 0.00 | 0.00 | 0.00 | 61 | 1006.7 |
| 20260508042251 | 6 | 323 | 1.6 | 1.6 | 0.00 | 0.00 | 0.00 | 61 | 1006.7 |
| 20260508041747 | 6 | 339 | 1.6 | 1.6 | 0.00 | 0.00 | 0.00 | 61 | 1006.6 |
| 20260508041244 | 6 | 321 | 3.2 | 3.2 | 0.00 | 0.00 | 0.00 | 61 | 1006.5 |
| 20260508040740 | 6 | 349 | 1.6 | 3.2 | 0.00 | 0.00 | 0.00 | 59 | 1006.7 |
| 20260508040238 | 6 | 4 | 3.2 | 3.2 | 0.00 | 0.00 | 0.00 | 60 | 1006.8 |
| 20260508035735 | 6 | 30 | 4.8 | 4.8 | 0.00 | 0.30 | 0.30 | 61 | 1006.7 |
| 20260508035232 | 6 | 18 | 0.0 | 1.6 | 0.00 | 0.30 | 0.30 | 62 | 1006.8 |
| 20260508034728 | 6 | 4 | 0.0 | 0.0 | 0.00 | 0.30 | 0.30 | 59 | 1006.9 |
| 20260508034226 | 6 | 292 | 3.2 | 3.2 | 0.00 | 0.30 | 0.30 | 59 | 1007.0 |
| 20260508033723 | 6 | 280 | 4.8 | 4.8 | 0.00 | 0.30 | 0.30 | 59 | 1006.9 |
| 20260508033221 | 6 | 270 | 3.2 | 3.2 | 0.00 | 0.30 | 0.30 | 59 | 1007.1 |
| 20260508032719 | 7 | 336 | 1.6 | 1.6 | 0.00 | 0.30 | 0.30 | 58 | 1007.0 |
| 20260508032215 | 7 | 356 | 1.6 | 1.6 | 0.00 | 0.30 | 0.30 | 58 | 1007.0 |
| 20260508031712 | 7 | 13 | 1.6 | 1.6 | 0.00 | 0.30 | 0.30 | 57 | 1007.0 |
| 20260508031208 | 7 | 357 | 1.6 | 1.6 | 0.00 | 0.30 | 0.30 | 56 | 1007.1 |
| 20260508030705 | 7 | 54 | 0.0 | 1.6 | 0.00 | 0.30 | 0.30 | 55 | 1007.0 |
| 20260508030203 | 7 | 11 | 1.6 | 1.6 | 0.00 | 0.30 | 0.30 | 54 | 1006.9 |
| 20260508025659 | 7 | 357 | 1.6 | 3.2 | 0.00 | 0.30 | 0.30 | 54 | 1006.9 |
| 20260508025156 | 7 | 4 | 0.0 | 1.6 | 0.00 | 0.30 | 0.30 | 55 | 1006.7 |
| 20260508024651 | 7 | 352 | 1.6 | 1.6 | 0.00 | 0.30 | 0.30 | 54 | 1006.7 |
| 20260508024149 | 7 | 19 | 3.2 | 3.2 | 0.00 | 0.30 | 0.30 | 54 | 1006.8 |
| 20260508023645 | 8 | 26 | 3.2 | 3.2 | 0.00 | 0.30 | 0.30 | 53 | 1006.8 |
| 20260508023143 | 8 | 351 | 4.8 | 4.8 | 0.00 | 0.30 | 0.30 | 53 | 1007.0 |
| 20260508022638 | 8 | 15 | 4.8 | 4.8 | 0.00 | 0.30 | 0.30 | 52 | 1006.8 |
| 20260508022136 | 8 | 9 | 1.6 | 1.6 | 0.00 | 0.30 | 0.30 | 52 | 1006.6 |
| 20260508021632 | 8 | 45 | 3.2 | 3.2 | 0.00 | 0.30 | 0.30 | 53 | 1006.4 |
| 20260508021127 | 8 | 37 | 1.6 | 1.6 | 0.00 | 0.30 | 0.30 | 53 | 1006.6 |
| 20260508020626 | 8 | 303 | 4.8 | 9.7 | 0.00 | 0.30 | 0.30 | 53 | 1006.7 |
| 20260508020123 | 8 | 38 | 3.2 | 3.2 | 0.00 | 0.30 | 0.30 | 53 | 1006.8 |
| 20260508015620 | 8 | 16 | 8.0 | 9.7 | 0.00 | 0.30 | 0.30 | 54 | 1006.7 |
| 20260508015117 | 8 | 35 | 3.2 | 3.2 | 0.00 | 0.30 | 0.30 | 54 | 1006.6 |
| 20260508014613 | 8 | 44 | 4.8 | 8.0 | 0.00 | 0.30 | 0.30 | 54 | 1006.7 |
| 20260508014110 | 8 | 47 | 1.6 | 1.6 | 0.00 | 0.30 | 0.30 | 55 | 1006.5 |
| 20260508013606 | 8 | 23 | 1.6 | 1.6 | 0.00 | 0.30 | 0.30 | 54 | 1006.7 |
| 20260508013103 | 8 | 7 | 8.0 | 9.7 | 0.00 | 0.30 | 0.30 | 54 | 1006.7 |
| 20260508012600 | 8 | 35 | 1.6 | 1.6 | 0.00 | 0.30 | 0.30 | 56 | 1006.7 |
| 20260508012057 | 8 | 330 | 9.7 | 14.5 | 0.00 | 0.30 | 0.30 | 54 | 1006.4 |
| 20260508011556 | 9 | 19 | 8.0 | 11.3 | 0.00 | 0.30 | 0.30 | 54 | 1006.5 |
| 20260508011053 | 9 | 24 | 6.4 | 8.0 | 0.00 | 0.30 | 0.30 | 53 | 1006.7 |
| 20260508010549 | 9 | 21 | 4.8 | 4.8 | 0.00 | 0.30 | 0.30 | 54 | 1006.5 |
| 20260508010047 | 9 | 310 | 6.4 | 9.7 | 0.00 | 0.30 | 0.30 | 54 | 1006.3 |
| 20260508005543 | 9 | 44 | 14.5 | 16.1 | 0.00 | 0.30 | 0.30 | 54 | 1006.4 |
| 20260508005040 | 9 | 32 | 3.2 | 4.8 | 0.00 | 0.30 | 0.30 | 54 | 1006.3 |
| 20260508004536 | 9 | 42 | 6.4 | 8.0 | 0.00 | 0.30 | 0.30 | 54 | 1006.0 |
| 20260508004033 | 10 | 33 | 4.8 | 9.7 | 0.00 | 0.30 | 0.30 | 53 | 1006.3 |
| 20260508003529 | 10 | 53 | 9.7 | 11.3 | 0.00 | 0.30 | 0.30 | 52 | 1006.2 |
| 20260508003027 | 10 | 15 | 8.0 | 12.9 | 0.00 | 0.30 | 0.30 | 52 | 1006.1 |
| 20260508002523 | 10 | 22 | 6.4 | 11.3 | 0.00 | 0.30 | 0.30 | 51 | 1005.8 |
| 20260508002021 | 10 | 39 | 8.0 | 12.9 | 0.00 | 0.30 | 0.30 | 50 | 1005.9 |
| 20260508001516 | 10 | 344 | 11.3 | 16.1 | 0.00 | 0.30 | 0.30 | 49 | 1006.0 |
| 20260508001013 | 10 | 8 | 14.5 | 22.5 | 0.00 | 0.30 | 0.30 | 49 | 1005.7 |
| 20260508000509 | 11 | 356 | 3.2 | 3.2 | 0.00 | 0.30 | 0.30 | 50 | 1005.7 |
| 20260508000006 | 11 | 38 | 9.7 | 11.3 | 0.00 | 0.30 | 0.30 | 49 | 1005.6 |
| 20260507235502 | 11 | 20 | 4.8 | 11.3 | 0.00 | 0.30 | 0.30 | 49 | 1005.5 |
| 20260507235000 | 11 | 44 | 4.8 | 4.8 | 0.00 | 0.30 | 0.30 | 50 | 1005.5 |
| 20260507234456 | 11 | 61 | 3.2 | 4.8 | 0.00 | 0.30 | 0.30 | 50 | 1005.4 |
| 20260507233953 | 11 | 49 | 3.2 | 8.0 | 0.00 | 0.30 | 0.30 | 49 | 1005.2 |
| 20260507233450 | 11 | 299 | 8.0 | 9.7 | 0.00 | 0.30 | 0.30 | 48 | 1005.1 |
| 20260507232948 | 12 | 7 | 8.0 | 9.7 | 0.00 | 0.30 | 0.30 | 48 | 1004.9 |
| 20260507232444 | 12 | 13 | 8.0 | 11.3 | 0.00 | 0.30 | 0.30 | 48 | 1004.9 |
| 20260507231942 | 12 | 348 | 6.4 | 8.0 | 0.00 | 0.30 | 0.30 | 48 | 1004.7 |
| 20260507231438 | 12 | 60 | 3.2 | 4.8 | 0.00 | 0.30 | 0.30 | 49 | 1004.4 |
| 20260507230935 | 12 | 349 | 1.6 | 4.8 | 0.00 | 0.30 | 0.30 | 50 | 1004.4 |
| 20260507230432 | 12 | 354 | 6.4 | 11.3 | 0.00 | 0.30 | 0.30 | 47 | 1004.3 |
| 20260507225932 | 13 | 289 | 6.4 | 8.0 | 0.00 | 0.30 | 0.30 | 47 | 1004.3 |
| 20260507225428 | 13 | 20 | 3.2 | 3.2 | 0.00 | 0.30 | 0.30 | 47 | 1004.2 |
| 20260507224925 | 14 | 344 | 4.8 | 4.8 | 0.00 | 0.30 | 0.30 | 45 | 1004.3 |
| 20260507224421 | 14 | 356 | 3.2 | 4.8 | 0.00 | 0.30 | 0.30 | 45 | 1003.7 |
| 20260507223918 | 15 | 12 | 4.8 | 4.8 | 0.00 | 0.30 | 0.30 | 43 | 1003.8 |
| 20260507223414 | 15 | 340 | 3.2 | 4.8 | 0.00 | 0.30 | 0.30 | 42 | 1003.6 |
| 20260507222911 | 15 | 280 | 3.2 | 4.8 | 0.00 | 0.30 | 0.30 | 42 | 1003.5 |
| 20260507222408 | 15 | 54 | 12.9 | 14.5 | 0.00 | 0.30 | 0.30 | 42 | 1003.6 |
| 20260507221905 | 15 | 18 | 3.2 | 3.2 | 0.00 | 0.30 | 0.30 | 40 | 1003.4 |
| 20260507221401 | 15 | 273 | 3.2 | 4.8 | 0.00 | 0.30 | 0.30 | 40 | 1003.3 |
| 20260507220857 | 15 | 308 | 11.3 | 14.5 | 0.00 | 0.30 | 0.30 | 40 | 1003.3 |
| 20260507220355 | 15 | 303 | 11.3 | 16.1 | 0.00 | 0.30 | 0.30 | 41 | 1003.1 |
| 20260507215852 | 15 | 255 | 8.0 | 12.9 | 0.00 | 0.30 | 0.30 | 41 | 1003.2 |
| 20260507215348 | 15 | 15 | 14.5 | 24.1 | 0.00 | 0.30 | 0.30 | 40 | 1003.2 |
| 20260507214845 | 15 | 140 | 3.2 | 3.2 | 0.00 | 0.30 | 0.30 | 43 | 1003.1 |
| 20260507214343 | 15 | 302 | 4.8 | 4.8 | 0.00 | 0.30 | 0.30 | 43 | 1003.3 |
| 20260507213838 | 15 | 330 | 6.4 | 9.7 | 0.00 | 0.30 | 0.30 | 45 | 1003.3 |
| 20260507213335 | 16 | 294 | 8.0 | 8.0 | 0.00 | 0.30 | 0.30 | 43 | 1003.2 |
| 20260507212832 | 16 | 296 | 3.2 | 3.2 | 0.00 | 0.30 | 0.30 | 45 | 1003.1 |
| 20260507212327 | 16 | 284 | 9.7 | 14.5 | 0.00 | 0.30 | 0.30 | 44 | 1003.4 |
| 20260507211824 | 16 | 308 | 6.4 | 8.0 | 0.00 | 0.30 | 0.30 | 44 | 1003.2 |
| 20260507211321 | 16 | 298 | 8.0 | 9.7 | 0.00 | 0.30 | 0.30 | 47 | 1003.2 |
| 20260507210818 | 16 | 340 | 14.5 | 22.5 | 0.00 | 0.30 | 0.30 | 47 | 1003.2 |
| 20260507210315 | 15 | 291 | 9.7 | 12.9 | 0.00 | 0.30 | 0.30 | 50 | 1002.9 |
| 20260507205811 | 15 | 349 | 9.7 | 12.9 | 0.00 | 0.30 | 0.30 | 52 | 1003.0 |
| 20260507205309 | 16 | 284 | 9.7 | 14.5 | 0.00 | 0.30 | 0.30 | 52 | 1003.2 |
| 20260507204804 | 15 | 36 | 4.8 | 8.0 | 0.00 | 0.30 | 0.30 | 53 | 1003.0 |
| 20260507204302 | 15 | 34 | 4.8 | 8.0 | 0.00 | 0.30 | 0.30 | 53 | 1003.1 |
| 20260507203800 | 15 | 346 | 8.0 | 9.7 | 0.00 | 0.30 | 0.30 | 53 | 1002.9 |
| 20260507203258 | 16 | 313 | 9.7 | 12.9 | 0.00 | 0.30 | 0.30 | 51 | 1002.9 |
| 20260507202753 | 15 | 330 | 1.6 | 3.2 | 0.00 | 0.30 | 0.30 | 52 | 1002.8 |
| 20260507202249 | 15 | 20 | 1.6 | 3.2 | 0.00 | 0.30 | 0.30 | 54 | 1002.8 |
| 20260507201744 | 15 | 343 | 8.0 | 9.7 | 0.00 | 0.30 | 0.30 | 52 | 1002.8 |
| 20260507201241 | 16 | 316 | 12.9 | 16.1 | 0.00 | 0.30 | 0.30 | 50 | 1002.9 |
| 20260507200738 | 15 | 277 | 12.9 | 17.7 | 0.00 | 0.30 | 0.30 | 52 | 1002.7 |
| 20260507200233 | 15 | 336 | 4.8 | 8.0 | 0.00 | 0.30 | 0.30 | 53 | 1002.9 |
| 20260507195730 | 16 | 354 | 4.8 | 4.8 | 0.00 | 0.30 | 0.30 | 55 | 1002.9 |
| 20260507195228 | 16 | 27 | 11.3 | 12.9 | 0.00 | 0.30 | 0.30 | 49 | 1003.0 |
| 20260507194725 | 16 | 354 | 4.8 | 4.8 | 0.00 | 0.30 | 0.30 | 53 | 1003.0 |
| 20260507194220 | 16 | 25 | 9.7 | 12.9 | 0.00 | 0.30 | 0.30 | 51 | 1003.0 |
| 20260507193717 | 15 | 293 | 8.0 | 12.9 | 0.00 | 0.30 | 0.30 | 51 | 1002.9 |
| 20260507193214 | 15 | 357 | 1.6 | 1.6 | 0.00 | 0.30 | 0.30 | 53 | 1003.0 |
| 20260507192710 | 15 | 12 | 6.4 | 8.0 | 0.00 | 0.30 | 0.30 | 54 | 1003.0 |
| 20260507192207 | 15 | 259 | 6.4 | 8.0 | 0.00 | 0.30 | 0.30 | 53 | 1003.0 |
| 20260507191703 | 15 | 312 | 11.3 | 12.9 | 0.00 | 0.30 | 0.30 | 52 | 1002.9 |
| 20260507191201 | 15 | 332 | 6.4 | 8.0 | 0.00 | 0.30 | 0.30 | 52 | 1002.9 |
| 20260507190657 | 15 | 300 | 6.4 | 8.0 | 0.00 | 0.30 | 0.30 | 52 | 1002.9 |
| 20260507190156 | 16 | 243 | 8.0 | 9.7 | 0.00 | 0.30 | 0.30 | 52 | 1002.9 |
| 20260507185654 | 16 | 256 | 16.1 | 24.1 | 0.00 | 0.30 | 0.30 | 53 | 1003.1 |
| 20260507185150 | 16 | 277 | 8.0 | 16.1 | 0.00 | 0.30 | 0.30 | 51 | 1003.1 |
| 20260507184648 | 16 | 318 | 11.3 | 12.9 | 0.00 | 0.30 | 0.30 | 54 | 1003.2 |
| 20260507184146 | 15 | 290 | 4.8 | 4.8 | 0.00 | 0.30 | 0.30 | 56 | 1003.5 |
| 20260507183642 | 15 | 265 | 6.4 | 8.0 | 0.00 | 0.30 | 0.30 | 54 | 1003.4 |
| 20260507183139 | 15 | 270 | 6.4 | 9.7 | 0.00 | 0.30 | 0.30 | 52 | 1003.4 |
| 20260507182636 | 15 | 41 | 4.8 | 8.0 | 0.00 | 0.30 | 0.30 | 55 | 1003.4 |
| 20260507182132 | 15 | 335 | 8.0 | 9.7 | 0.00 | 0.30 | 0.30 | 56 | 1003.6 |
| 20260507181628 | 15 | 22 | 8.0 | 11.3 | 0.00 | 0.30 | 0.30 | 56 | 1003.8 |
| 20260507181124 | 15 | 359 | 3.2 | 4.8 | 0.00 | 0.30 | 0.30 | 59 | 1003.8 |
| 20260507180621 | 15 | 348 | 4.8 | 8.0 | 0.00 | 0.30 | 0.30 | 58 | 1003.6 |
| 20260507180118 | 15 | 6 | 4.8 | 4.8 | 0.00 | 0.30 | 0.30 | 56 | 1003.9 |
| 20260507175614 | 15 | 353 | 1.6 | 1.6 | 0.00 | 0.30 | 0.30 | 55 | 1003.8 |
| 20260507175111 | 15 | 268 | 11.3 | 12.9 | 0.00 | 0.30 | 0.30 | 55 | 1003.8 |
| 20260507174609 | 16 | 270 | 9.7 | 11.3 | 0.00 | 0.30 | 0.30 | 56 | 1003.8 |
| 20260507174106 | 15 | 272 | 4.8 | 4.8 | 0.00 | 0.30 | 0.30 | 55 | 1003.8 |
| 20260507173603 | 15 | 287 | 4.8 | 4.8 | 0.00 | 0.30 | 0.30 | 54 | 1003.9 |
| 20260507173100 | 15 | 310 | 6.4 | 9.7 | 0.00 | 0.30 | 0.30 | 53 | 1003.9 |
| 20260507172556 | 15 | 265 | 8.0 | 9.7 | 0.00 | 0.30 | 0.30 | 57 | 1003.9 |
| 20260507172053 | 15 | 268 | 3.2 | 3.2 | 0.00 | 0.30 | 0.30 | 53 | 1003.8 |
| 20260507171548 | 16 | 269 | 6.4 | 8.0 | 0.00 | 0.30 | 0.30 | 55 | 1004.1 |
| 20260507171046 | 15 | 23 | 3.2 | 4.8 | 0.00 | 0.30 | 0.30 | 55 | 1004.1 |
| 20260507170543 | 15 | 333 | 3.2 | 3.2 | 0.00 | 0.30 | 0.30 | 56 | 1004.1 |
| 20260507170040 | 15 | 343 | 8.0 | 11.3 | 0.00 | 0.30 | 0.30 | 54 | 1004.1 |
| 20260507165535 | 15 | 265 | 9.7 | 12.9 | 0.00 | 0.30 | 0.30 | 56 | 1004.2 |
| 20260507165032 | 14 | 239 | 6.4 | 8.0 | 0.00 | 0.30 | 0.30 | 58 | 1004.1 |
| 20260507164528 | 15 | 274 | 6.4 | 9.7 | 0.00 | 0.30 | 0.30 | 57 | 1004.2 |
| 20260507164025 | 14 | 43 | 3.2 | 4.8 | 0.00 | 0.30 | 0.30 | 62 | 1004.4 |
| 20260507163522 | 14 | 301 | 8.0 | 8.0 | 0.00 | 0.30 | 0.30 | 59 | 1004.6 |
| 20260507163021 | 13 | 303 | 6.4 | 8.0 | 0.00 | 0.30 | 0.30 | 60 | 1004.4 |
| 20260507162515 | 14 | 304 | 12.9 | 14.5 | 0.00 | 0.30 | 0.30 | 58 | 1004.4 |
| 20260507162012 | 14 | 352 | 3.2 | 3.2 | 0.00 | 0.30 | 0.30 | 61 | 1004.8 |
| 20260507161508 | 14 | 351 | 1.6 | 1.6 | 0.00 | 0.30 | 0.30 | 64 | 1004.7 |
| 20260507161005 | 14 | 25 | 0.0 | 1.6 | 0.00 | 0.30 | 0.30 | 62 | 1004.7 |
| 20260507160501 | 14 | 321 | 4.8 | 4.8 | 0.00 | 0.30 | 0.30 | 61 | 1005.0 |
| 20260507155957 | 14 | 290 | 4.8 | 4.8 | 0.00 | 0.30 | 0.30 | 65 | 1005.0 |
| 20260507155453 | 13 | 286 | 4.8 | 4.8 | 0.00 | 0.30 | 0.30 | 68 | 1005.0 |
| 20260507154950 | 13 | 288 | 6.4 | 8.0 | 0.00 | 0.30 | 0.30 | 63 | 1004.9 |
| 20260507154447 | 15 | 286 | 11.3 | 11.3 | 0.00 | 0.30 | 0.30 | 57 | 1004.7 |
| 20260507153944 | 15 | 260 | 3.2 | 3.2 | 0.00 | 0.30 | 0.30 | 63 | 1004.8 |
| 20260507153441 | 14 | 353 | 3.2 | 4.8 | 0.00 | 0.30 | 0.30 | 59 | 1004.8 |
| 20260507152937 | 14 | 262 | 6.4 | 8.0 | 0.00 | 0.30 | 0.30 | 65 | 1005.0 |
| 20260507152433 | 13 | 191 | 8.0 | 9.7 | 0.00 | 0.30 | 0.30 | 63 | 1004.8 |
| 20260507151929 | 15 | 265 | 6.4 | 8.0 | 0.00 | 0.30 | 0.30 | 65 | 1004.9 |
| 20260507151426 | 14 | 247 | 6.4 | 8.0 | 0.00 | 0.30 | 0.30 | 65 | 1005.1 |
| 20260507150923 | 14 | 311 | 8.0 | 11.3 | 0.00 | 0.30 | 0.30 | 68 | 1005.1 |
| 20260507150420 | 14 | 275 | 6.4 | 9.7 | 0.00 | 0.30 | 0.30 | 66 | 1005.4 |
| 20260507145916 | 14 | 332 | 4.8 | 8.0 | 0.00 | 0.30 | 0.30 | 67 | 1005.2 |
| 20260507145412 | 14 | 350 | 3.2 | 3.2 | 0.00 | 0.30 | 0.30 | 66 | 1005.1 |
| 20260507144909 | 13 | 11 | 6.4 | 8.0 | 0.00 | 0.30 | 0.30 | 68 | 1005.2 |
| 20260507144406 | 13 | 355 | 3.2 | 3.2 | 0.00 | 0.30 | 0.30 | 71 | 1005.4 |
| 20260507143903 | 13 | 349 | 4.8 | 4.8 | 0.00 | 0.30 | 0.30 | 69 | 1005.4 |
| 20260507143400 | 13 | 31 | 1.6 | 3.2 | 0.00 | 0.30 | 0.30 | 71 | 1005.5 |
| 20260507142857 | 13 | 47 | 1.6 | 3.2 | 0.00 | 0.30 | 0.30 | 71 | 1005.5 |
| 20260507142353 | 13 | 350 | 3.2 | 3.2 | 0.00 | 0.30 | 0.30 | 72 | 1005.5 |
| 20260507141850 | 12 | 34 | 4.8 | 4.8 | 0.00 | 0.30 | 0.30 | 75 | 1005.6 |
| 20260507141346 | 13 | 320 | 1.6 | 3.2 | 0.00 | 0.30 | 0.30 | 77 | 1006.0 |
| 20260507140843 | 12 | 3 | 0.0 | 1.6 | 0.00 | 0.30 | 0.30 | 77 | 1005.8 |
| 20260507140340 | 12 | 3 | 6.4 | 8.0 | 0.00 | 0.30 | 0.30 | 76 | 1005.9 |
| 20260507135838 | 13 | 5 | 4.8 | 4.8 | 0.00 | 0.30 | 0.30 | 76 | 1005.7 |
| 20260507135334 | 12 | 69 | 3.2 | 3.2 | 0.00 | 0.30 | 0.30 | 76 | 1005.8 |
| 20260507134832 | 12 | 41 | 3.2 | 4.8 | 0.00 | 0.30 | 0.30 | 78 | 1006.0 |
| 20260507134327 | 12 | 29 | 4.8 | 9.7 | 0.00 | 0.30 | 0.30 | 77 | 1006.0 |
| 20260507133824 | 12 | 58 | 6.4 | 9.7 | 0.00 | 0.30 | 0.30 | 76 | 1006.0 |
| 20260507133319 | 12 | 55 | 3.2 | 3.2 | 0.00 | 0.30 | 0.30 | 79 | 1005.9 |
| 20260507132818 | 12 | 348 | 6.4 | 8.0 | 0.00 | 0.30 | 0.30 | 77 | 1006.1 |
| 20260507132314 | 12 | 32 | 3.2 | 3.2 | 0.00 | 0.30 | 0.30 | 80 | 1006.0 |
| 20260507131811 | 11 | 21 | 6.4 | 9.7 | 0.00 | 0.30 | 0.30 | 79 | 1006.0 |
| 20260507131308 | 11 | 284 | 4.8 | 8.0 | 0.00 | 0.30 | 0.30 | 80 | 1006.3 |
| 20260507130804 | 11 | 15 | 0.0 | 0.0 | 0.00 | 0.30 | 0.30 | 80 | 1006.2 |
| 20260507130302 | 11 | 7 | 4.8 | 4.8 | 0.00 | 0.30 | 0.30 | 80 | 1006.0 |
| 20260507125801 | 11 | 7 | 4.8 | 8.0 | 0.00 | 0.30 | 0.30 | 80 | 1006.0 |
| 20260507125258 | 11 | 9 | 4.8 | 4.8 | 0.00 | 0.30 | 0.30 | 80 | 1006.0 |
| 20260507124755 | 11 | 0 | 4.8 | 8.0 | 0.00 | 0.30 | 0.30 | 81 | 1006.2 |
| 20260507124251 | 11 | 280 | 4.8 | 8.0 | 0.00 | 0.30 | 0.30 | 83 | 1006.4 |
| 20260507123750 | 10 | 311 | 3.2 | 3.2 | 0.00 | 0.30 | 0.30 | 83 | 1006.2 |
| 20260507123247 | 10 | 336 | 9.7 | 12.9 | 0.00 | 0.30 | 0.30 | 82 | 1006.3 |
| 20260507122742 | 10 | 325 | 8.0 | 9.7 | 0.00 | 0.30 | 0.30 | 83 | 1006.3 |
| 20260507122238 | 11 | 297 | 14.5 | 17.7 | 0.00 | 0.30 | 0.30 | 82 | 1005.9 |
| 20260507121734 | 10 | 305 | 0.0 | 1.6 | 0.00 | 0.30 | 0.30 | 85 | 1005.9 |
| 20260507121230 | 10 | 40 | 3.2 | 3.2 | 0.00 | 0.30 | 0.30 | 85 | 1006.0 |
| 20260507120726 | 9 | 14 | 4.8 | 4.8 | 0.00 | 0.30 | 0.30 | 87 | 1006.3 |
| 20260507120224 | 9 | 300 | 8.0 | 9.7 | 0.00 | 0.30 | 0.30 | 88 | 1006.3 |
| 20260507115719 | 10 | 319 | 3.2 | 3.2 | 0.00 | 0.30 | 0.30 | 89 | 1006.3 |
| 20260507115216 | 9 | 326 | 1.6 | 3.2 | 0.00 | 0.30 | 0.30 | 91 | 1006.6 |
| 20260507114711 | 8 | 350 | 3.2 | 3.2 | 0.00 | 0.30 | 0.30 | 90 | 1006.4 |
| 20260507114209 | 8 | 16 | 1.6 | 3.2 | 0.00 | 0.30 | 0.30 | 91 | 1006.5 |
| 20260507113706 | 8 | 30 | 3.2 | 3.2 | 0.00 | 0.30 | 0.30 | 94 | 1006.5 |
| 20260507113203 | 8 | 344 | 4.8 | 4.8 | 0.00 | 0.30 | 0.30 | 94 | 1006.3 |
| 20260507112701 | 8 | 210 | 4.8 | 4.8 | 0.00 | 0.30 | 0.30 | 95 | 1006.8 |
| 20260507112157 | 8 | 182 | 3.2 | 3.2 | 0.00 | 0.30 | 0.30 | 97 | 1006.7 |
| 20260507111655 | 8 | 244 | 3.2 | 4.8 | 0.00 | 0.30 | 0.30 | 99 | 1006.9 |
| 20260507111152 | 7 | 215 | 3.2 | 3.2 | 0.00 | 0.30 | 0.30 | 99 | 1006.7 |
| 20260507110647 | 7 | 189 | 3.2 | 4.8 | 0.00 | 0.30 | 0.30 | 99 | 1006.6 |
| 20260507110144 | 7 | 293 | 3.2 | 3.2 | 0.00 | 0.30 | 0.30 | 99 | 1006.9 |
| 20260507105641 | 7 | 352 | 0.0 | 0.0 | 0.00 | 0.30 | 0.30 | 99 | 1006.3 |
| 20260507105137 | 7 | 17 | 0.0 | 0.0 | 0.00 | 0.30 | 0.30 | 99 | 1006.4 |
| 20260507104634 | 7 | 9 | 0.0 | 0.0 | 0.00 | 0.30 | 0.30 | 99 | 1006.4 |
| 20260507104131 | 7 | 305 | 3.2 | 4.8 | 0.00 | 0.30 | 0.30 | 99 | 1006.5 |
| 20260507103627 | 7 | 341 | 1.6 | 1.6 | 0.00 | 0.30 | 0.30 | 99 | 1006.6 |
| 20260507103124 | 7 | 340 | 4.8 | 4.8 | 0.00 | 0.30 | 0.30 | 99 | 1006.3 |
| 20260507102620 | 6 | 9 | 0.0 | 1.6 | 0.00 | 0.30 | 0.30 | 99 | 1006.0 |
| 20260507102116 | 7 | 1 | 3.2 | 3.2 | 0.00 | 0.30 | 0.30 | 99 | 1005.8 |
| 20260507101613 | 6 | 17 | 0.0 | 0.0 | 0.00 | 0.30 | 0.30 | 99 | 1006.0 |
| 20260507101109 | 6 | 11 | 1.6 | 1.6 | 0.00 | 0.30 | 0.30 | 99 | 1006.2 |
| 20260507100606 | 6 | 2 | 3.2 | 3.2 | 0.00 | 0.30 | 0.30 | 99 | 1005.9 |
| 20260507100104 | 6 | 15 | 4.8 | 4.8 | 0.00 | 0.30 | 0.30 | 99 | 1005.9 |
| 20260507095602 | 6 | 19 | 1.6 | 3.2 | 0.00 | 0.30 | 0.30 | 99 | 1005.8 |
| 20260507095058 | 6 | 22 | 1.6 | 1.6 | 0.00 | 0.30 | 0.30 | 99 | 1005.9 |
| 20260507094554 | 6 | 49 | 3.2 | 3.2 | 0.00 | 0.30 | 0.30 | 99 | 1005.9 |
| 20260507094051 | 6 | 3 | 0.0 | 1.6 | 0.00 | 0.30 | 0.30 | 99 | 1006.0 |
| 20260507093549 | 6 | 359 | 1.6 | 1.6 | 0.00 | 0.30 | 0.30 | 99 | 1006.0 |
| 20260507093047 | 6 | 331 | 4.8 | 4.8 | 0.00 | 0.30 | 0.30 | 99 | 1005.7 |
| 20260507092543 | 6 | 11 | 3.2 | 3.2 | 0.00 | 0.30 | 0.30 | 99 | 1005.5 |
| 20260507092040 | 7 | 14 | 1.6 | 3.2 | 0.00 | 0.30 | 0.30 | 99 | 1006.0 |
| 20260507091537 | 7 | 22 | 0.0 | 0.0 | 0.00 | 0.30 | 0.30 | 99 | 1005.8 |
| 20260507091033 | 7 | 325 | 3.2 | 3.2 | 0.00 | 0.30 | 0.30 | 99 | 1006.0 |
| 20260507090529 | 7 | 15 | 0.0 | 0.0 | 0.00 | 0.30 | 0.30 | 99 | 1005.9 |
| 20260507090026 | 7 | 5 | 3.2 | 4.8 | 0.00 | 0.30 | 0.30 | 99 | 1006.4 |
| 20260507085523 | 7 | 333 | 3.2 | 3.2 | 0.00 | 0.30 | 0.30 | 99 | 1006.1 |
| 20260507085020 | 7 | 11 | 0.0 | 1.6 | 0.00 | 0.30 | 0.30 | 99 | 1005.6 |
| 20260507084516 | 7 | 12 | 1.6 | 1.6 | 0.00 | 0.30 | 0.30 | 99 | 1005.5 |
| 20260507084014 | 7 | 10 | 1.6 | 3.2 | 0.00 | 0.30 | 0.30 | 99 | 1005.7 |
| 20260507083510 | 7 | 10 | 3.2 | 3.2 | 0.00 | 0.30 | 0.30 | 99 | 1005.6 |
| 20260507083007 | 7 | 14 | 1.6 | 3.2 | 0.00 | 0.30 | 0.30 | 99 | 1005.6 |
| 20260507082503 | 7 | 19 | 1.6 | 1.6 | 0.00 | 0.30 | 0.30 | 99 | 1005.3 |
| 20260507081959 | 7 | 17 | 4.8 | 4.8 | 0.00 | 0.30 | 0.30 | 99 | 1005.4 |
| 20260507081455 | 7 | 359 | 1.6 | 1.6 | 0.00 | 0.30 | 0.30 | 99 | 1005.6 |
| 20260507080953 | 7 | 14 | 6.4 | 8.0 | 0.00 | 0.30 | 0.30 | 99 | 1005.3 |
| 20260507080448 | 7 | 242 | 3.2 | 4.8 | 0.00 | 0.30 | 0.30 | 99 | 1005.6 |
| 20260507075944 | 7 | 353 | 4.8 | 4.8 | 0.00 | 0.30 | 0.30 | 99 | 1005.4 |
| 20260507075440 | 7 | 356 | 1.6 | 1.6 | 0.00 | 0.30 | 0.30 | 99 | 1005.5 |
| 20260507074937 | 7 | 18 | 1.6 | 1.6 | 0.00 | 0.30 | 0.30 | 99 | 1005.5 |
| 20260507074433 | 7 | 23 | 4.8 | 4.8 | 0.00 | 0.30 | 0.30 | 99 | 1005.5 |
| 20260507073931 | 7 | 353 | 6.4 | 9.7 | 0.00 | 0.30 | 0.30 | 99 | 1005.7 |
| 20260507073422 | 7 | 40 | 4.8 | 4.8 | 0.00 | 0.30 | 0.30 | 99 | 1005.5 |
| 20260507072919 | 7 | 29 | 4.8 | 8.0 | 0.00 | 0.30 | 0.30 | 99 | 1005.5 |
| 20260507072417 | 7 | 35 | 1.6 | 1.6 | 0.00 | 0.30 | 0.30 | 99 | 1005.5 |
| 20260507071914 | 7 | 16 | 0.0 | 0.0 | 0.00 | 0.30 | 0.30 | 99 | 1005.3 |